Weather History for PHTO - May, 2013

Change the Weather History Date:

Wednesday, May 8, 2013

  Actual Average Record
Temperature  
Mean Temperature 76 °F 73 °F  
Max Temperature 85 °F 80 °F 87 °F (1966)
Min Temperature 67 °F 66 °F 59 °F (1992)
Degree Days  
Heating Degree Days 0 0  
Month to date heating degree days 0 0  
Since 1 July heating degree days 0 0  
Cooling Degree Days 11 8  
Month to date cooling degree days 76 64  
Year to date cooling degree days 909 861  
Growing Degree Days 26 (Base 50)    
Moisture  
Dew Point 69 °F    
Average Humidity 74    
Maximum Humidity 87    
Minimum Humidity 61    
Precipitation  
Precipitation 0.29 in 0.29 in 4.00 in (1985)
Month to date precipitation 0.87 2.53  
Year to date precipitation 39.48 46.32  
Snow  
Snow 0.00 in - - ()
Month to date snowfall 0.0  
Since 1 July snowfall 0.0  
Snow Depth 0.00 in    
Sea Level Pressure  
Sea Level Pressure 29.98 in    
Wind  
Wind Speed 6 mph (North)    
Max Wind Speed 14 mph    
Max Gust Speed 18 mph    
Visibility 8 miles    
Events Rain    
T = Trace of Precipitation, MM = Missing Value Source: NWS Daily Summary

Daily Weather History Graph

Daily Weather History Graph

Search for Another Location

Airport or City:

Trip Planner

Search our weather history database for the weather conditions in past years. The results will help you decide how hot, cold, wet, or windy it might be!

Date:

Astronomy

May. 08, 2013 Rise Set
Actual Time 5:47 AM HST 6:46 PM HST
Civil Twilight 5:24 AM HST 7:09 PM HST
Nautical Twilight 4:56 AM HST 7:37 PM HST
Astronomical Twilight 4:28 AM HST 8:05 PM HST
Moon 4:53 AM HST (5/8) 5:59 PM HST (5/8)
Length of Visible Light 13h 45m
Length of Day
12h 58m
Waning Crescent, 1% of the Moon is Illuminated
May 8
Waning Crescent
May 9
New
May 17
First Quarter
May 24
Full
May 31
Last Quarter

Hourly Weather History & Observations

Time (HST) Temp. Heat Index Dew Point Humidity Pressure Visibility Wind Dir Wind Speed Gust Speed Precip Events Conditions
12:53 AM 72.0 °F - 66.9 °F 84% 29.97 in 7.0 mi Calm Calm - N/A   Mostly Cloudy
2:53 AM 69.1 °F - 64.9 °F 87% 29.93 in 8.0 mi Calm Calm - N/A   Scattered Clouds
3:53 AM 68.0 °F - 64.9 °F 90% 29.93 in 9.0 mi SW 4.6 mph - N/A   Scattered Clouds
6:53 AM 70.0 °F - 62.1 °F 76% 29.97 in 10.0 mi SW 5.8 mph - N/A   Scattered Clouds
7:53 AM 75.0 °F - 64.9 °F 71% 29.99 in 10.0 mi Calm Calm - N/A   Partly Cloudy
8:53 AM 79.0 °F - 66.9 °F 66% 30.00 in 8.0 mi NNW 4.6 mph - N/A   Scattered Clouds
9:53 AM 80.1 °F 82.7 °F 68.0 °F 67% 30.00 in 9.0 mi Variable 3.5 mph - N/A   Scattered Clouds
10:53 AM 82.0 °F 85.5 °F 69.1 °F 65% 30.00 in 7.0 mi East 5.8 mph - N/A   Mostly Cloudy
11:53 AM 84.0 °F 87.8 °F 69.1 °F 61% 29.99 in 10.0 mi East 11.5 mph 17.3 mph N/A   Partly Cloudy
12:53 PM 82.0 °F 85.5 °F 69.1 °F 65% 29.98 in 7.0 mi ENE 10.4 mph - N/A   Scattered Clouds
1:53 PM 81.0 °F 83.8 °F 68.0 °F 65% 29.97 in 7.0 mi NE 11.5 mph - N/A   Mostly Cloudy
2:50 PM 78.8 °F - 68.0 °F 69% 29.96 in 10.0 mi NE 8.1 mph - N/A   Mostly Cloudy
2:53 PM 79.0 °F - 68.0 °F 69% 29.95 in 10.0 mi ENE 8.1 mph - N/A   Mostly Cloudy
3:41 PM 75.9 °F - 69.1 °F 79% 29.95 in 1.8 mi North 9.2 mph - 0.01 in Rain Heavy Rain
3:53 PM 75.0 °F - 70.0 °F 84% 29.94 in 0.8 mi North 5.8 mph - 0.20 in Rain Heavy Rain
3:56 PM 75.0 °F - 70.0 °F 84% 29.94 in 2.0 mi Variable 4.6 mph - 0.06 in Rain Heavy Rain
4:11 PM 75.0 °F - 71.1 °F 87% 29.94 in 3.0 mi NNW 3.5 mph - 0.12 in Rain Light Rain
4:53 PM 75.0 °F - 72.0 °F 90% 29.94 in 3.0 mi NNE 5.8 mph - 0.34 in Rain Rain
5:06 PM 75.0 °F - 72.0 °F 90% 29.95 in 5.0 mi North 5.8 mph - 0.01 in Rain Light Rain
5:53 PM 75.9 °F - 71.1 °F 85% 29.96 in 7.0 mi North 5.8 mph - 0.02 in   Mostly Cloudy
6:53 PM 75.0 °F - 71.1 °F 87% 29.98 in 9.0 mi North 4.6 mph - N/A   Overcast
7:53 PM 75.0 °F - 70.0 °F 84% 29.99 in 10.0 mi NNW 4.6 mph - 0.00 in Rain Light Rain
8:10 PM 73.9 °F - 71.1 °F 91% 30.00 in 10.0 mi NW 3.5 mph - 0.00 in   Overcast
8:31 PM 73.9 °F - 71.1 °F 91% 30.01 in 10.0 mi NNW 5.8 mph - 0.00 in   Mostly Cloudy
8:53 PM 73.9 °F - 71.1 °F 91% 30.01 in 10.0 mi North 4.6 mph - 0.00 in   Mostly Cloudy
9:53 PM 75.0 °F - 71.1 °F 87% 30.02 in 10.0 mi Calm Calm - N/A   Overcast
10:31 PM 73.9 °F - 71.1 °F 91% 30.03 in 10.0 mi NW 3.5 mph - N/A   Overcast
10:53 PM 73.9 °F - 71.1 °F 91% 30.03 in 9.0 mi WNW 3.5 mph - N/A   Overcast
11:13 PM 73.9 °F - 71.1 °F 91% 30.03 in 9.0 mi Calm Calm - N/A   Overcast
11:51 PM 73.4 °F - 69.8 °F 88% 30.02 in 10.0 mi Calm Calm - N/A   Mostly Cloudy
11:53 PM 73.0 °F - 70.0 °F 90% 30.02 in 10.0 mi Calm Calm - N/A   Mostly Cloudy